Wetbulb
74.23 75.75 77.93 77.38 77.00 76.83 76.76 76.95 77.50 77.91 77.99 78.34 77.94 77.13 76.77 76.11 75.99 75.56 75.86 75.72 75.98 75.96 76.24 76.31 75.89 75.81 75.74 75.57 75.16 75.55 75.00 75.02 74.74 75.64 75.29 74.68 74.94 74.95 74.46 74.89 74.71 74.64 74.76
75.21 76.03 77.53 77.70 77.30 77.08 76.66 77.23 77.22 77.34 77.42 77.50 77.71 77.01 76.59 76.24 76.14 76.19 76.30 76.49 76.20 76.18 76.30 76.24 76.22 76.12 76.16 75.72 75.44 75.05 75.83 75.18 75.85 75.51 74.80 74.42 74.98 75.10 74.75 72.96 72.28 73.42 73.69
75.18 76.32 76.85 77.90 77.70 77.15 77.13 77.35 77.33 77.43 76.95 76.94 76.98 76.75 76.54 76.51 76.84 76.50 76.14 76.01 76.35 75.65 76.38 76.39 76.08 76.26 75.60 74.72 74.78 74.75 74.58 75.67 75.65 75.72 75.45 73.85 73.78 74.24 73.45 74.28 73.45 72.44 74.10
75.94 76.56 77.05 77.52 77.83 77.42 77.51 77.55 76.92 77.43 77.38 77.37 77.26 77.22 77.22 76.94 76.65 76.58 76.21 76.47 76.21 76.18 76.55 76.30 76.10 75.93 75.08 75.11 74.83 75.24 75.13 75.62 75.44 75.47 74.02 73.67 72.01 73.26 72.93 73.59 74.56 74.45 73.33
76.30 76.85 77.50 77.65 78.09 77.24 77.21 77.59 77.50 77.37 77.02 76.99 77.08 77.00 76.92 76.95 76.36 76.32 75.78 76.01 75.93 76.27 76.35 76.50 76.09 75.30 75.38 75.58 75.63 75.91 75.91 75.82 75.42 74.80 74.88 74.11 73.35 73.40 75.19 75.18 73.44 74.96 74.89
76.26 76.69 77.86 78.07 78.03 77.15 77.35 77.47 77.21 77.47 77.38 76.62 76.70 76.36 75.93 75.95 76.45 76.18 76.26 75.81 76.02 76.00 76.07 76.18 75.86 75.63 75.58 75.62 75.82 75.89 75.82 75.20 74.71 74.64 75.20 74.82 74.04 73.37 74.94 74.67 74.16 73.47 74.70
76.03 76.59 77.50 78.22 78.26 78.40 77.91 77.31 77.64 77.15 76.92 76.91 76.60 76.69 76.80 76.54 75.96 75.52 75.47 75.68 75.96 76.17 76.07 76.12 75.61 76.02 75.54 75.55 75.27 74.99 74.54 74.77 74.32 74.30 74.37 74.30 73.64 74.28 75.09 73.56 74.28 74.74 73.60
75.61 76.43 77.44 77.95 78.19 78.02 77.47 77.34 77.13 77.04 76.89 76.22 76.88 76.58 76.56 76.74 76.63 76.60 76.16 75.84 75.41 75.77 75.84 75.44 75.50 76.19 75.48 75.07 75.07 74.92 74.54 74.60 74.91 74.98 74.42 74.64 74.38 74.56 74.65 75.06 72.66 74.07 74.97
76.31 76.56 77.30 77.55 77.97 77.90 77.79 77.35 77.26 76.99 76.94 76.92 76.87 76.76 76.25 76.51 76.12 76.01 76.40 76.45 76.16 75.35 75.57 75.97 75.71 76.06 75.59 74.97 74.77 74.81 75.12 75.12 75.25 75.53 74.83 74.32 75.06 74.71 74.84 75.61 73.97 73.59 73.34
75.85 76.18 76.63 77.53 77.58 77.49 77.66 77.63 77.25 77.15 77.11 77.11 77.00 76.99 76.84 76.33 76.01 75.98 76.95 76.49 76.30 76.37 75.66 75.54 75.99 76.35 75.96 75.44 75.02 74.74 74.64 74.89 74.88 75.02 75.37 74.92 75.33 75.21 74.81 75.61 74.14 74.41 74.51
74.94 75.75 76.41 76.55 77.43 77.78 77.82 77.36 77.52 77.15 76.83 76.46 76.94 76.52 76.41 76.08 76.14 76.08 76.08 75.90 76.22 75.73 75.85 75.85 75.21 76.16 76.44 76.39 75.76 75.04 74.61 74.86 74.84 75.00 75.31 74.81 74.87 75.39 75.63 74.82 74.65 74.00 73.22
72.99 74.53 75.59 76.11 76.28 76.96 76.26 77.72 77.72 77.08 76.94 76.97 76.83 76.94 77.55 76.20 76.83 75.94 76.14 75.74 75.78 75.65 75.60 75.81 75.88 75.28 76.05 75.40 75.37 75.72 74.38 74.47 74.41 75.01 75.42 74.85 75.07 75.35 75.94 76.10 75.43 74.93 73.78
73.16 73.73 75.19 75.80 76.49 76.05 75.97 76.60 76.25 76.81 76.81 77.24 76.48 77.39 77.07 76.82 77.27 76.54 76.35 76.39 76.25 76.22 75.43 75.46 75.55 75.53 75.50 75.79 74.73 74.43 74.74 74.32 74.07 74.51 75.75 74.42 75.02 75.53 75.73 76.25 75.82 74.97 74.89
72.56 73.28 74.30 75.55 76.03 76.34 76.18 75.57 76.06 75.59 74.04 70.97 73.85 76.11 77.62 76.41 75.97 76.52 75.61 77.01 77.04 78.02 76.42 76.16 75.34 75.35 75.17 75.28 75.35 75.16 74.43 74.20 74.11 74.34 75.02 74.67 75.78 75.77 76.01 76.49 75.94 75.31 75.24
72.04 72.91 73.90 75.14 75.84 75.89 76.13 75.59 76.43 75.32 74.26 71.89 72.29 74.15 74.72 75.11 75.78 76.16 76.56 76.86 76.72 77.77 76.46 75.67 75.41 74.86 74.24 73.94 73.99 74.04 74.01 74.36 73.91 74.30 74.10 74.88 75.86 75.80 75.87 75.98 76.03 75.61 75.57
73.01 73.24 74.03 74.71 75.67 76.03 75.86 76.06 76.03 76.15 76.54 74.34 72.06 72.97 73.27 73.94 72.83 73.48 74.90 75.80 76.42 75.75 77.32 75.34 74.26 74.03 74.09 73.48 72.24 72.58 73.10 74.10 74.71 74.90 74.19 74.48 75.46 75.93 75.92 76.24 76.22 76.47 76.26
74.40 74.65 74.75 75.02 75.62 76.00 76.17 76.01 76.09 74.67 75.00 74.48 73.01 71.24 71.91 72.06 72.72 71.18 71.66 74.68 75.68 76.46 75.96 75.60 74.88 73.91 73.13 73.31 72.38 72.26 72.53 73.24 74.26 75.23 75.73 75.93 75.04 75.21 75.92 76.13 75.98 76.60 76.34
75.11 74.83 75.89 75.24 75.74 76.35 76.53 76.64 75.96 75.60 74.77 74.05 73.35 72.40 71.80 71.30 71.81 71.20 71.08 71.53 75.96 74.64 74.43 74.12 73.71 72.30 72.35 72.20 71.75 72.26 72.61 72.97 73.63 75.02 75.69 75.89 75.34 74.99 75.83 76.52 75.81 75.76 76.14
75.09 75.25 75.64 76.24 76.28 76.82 76.84 76.25 75.73 74.93 73.90 73.73 73.41 73.19 72.81 73.40 71.52 70.89 72.12 74.25 74.53 72.93 73.26 72.87 72.17 71.95 71.36 71.47 71.59 72.38 72.54 71.82 73.45 74.69 75.62 76.04 76.31 75.81 75.71 75.94 75.55 75.25 75.69
74.68 75.37 75.96 76.04 76.81 76.44 76.08 75.58 74.47 74.10 73.17 73.16 73.41 73.55 73.89 73.37 73.34 72.83 71.26 72.62 73.38 72.81 72.54 72.38 72.47 72.51 71.76 71.39 71.59 72.26 73.32 73.38 74.20 74.53 72.86 75.79 76.69 76.23 76.42 76.39 76.35 75.71 75.95
73.86 74.63 75.10 75.37 76.21 74.85 73.47 73.49 72.86 71.22 72.15 71.96 72.17 72.85 73.77 73.83 73.66 71.86 71.31 71.02 71.45 70.82 71.01 72.10 72.42 71.90 71.47 72.57 70.69 71.15 71.28 72.96 72.57 73.22 74.19 74.53 74.74 75.36 76.13 76.45 76.52 75.82 76.63
73.24 74.17 73.79 71.95 73.32 73.38 73.03 74.37 74.28 72.06 71.89 71.97 72.32 72.75 72.80 72.97 72.95 73.14 73.91 73.15 73.32 71.99 72.62 72.60 71.93 71.39 71.68 72.19 69.55 69.57 68.51 70.16 71.85 73.08 74.10 73.48 73.92 74.42 74.84 75.39 76.21 76.60 76.82
73.12 70.28 69.07 68.44 69.22 71.97 73.05 73.37 72.43 71.47 70.99 70.00 70.53 70.93 72.35 73.28 73.35 73.16 73.39 73.31 73.08 73.34 72.43 73.33 72.64 72.23 71.80 69.59 72.06 70.04 66.64 65.21 68.05 68.98 69.82 70.94 71.51 71.23 73.09 74.63 75.38 75.60 75.69
69.18 69.64 66.62 67.08 69.96 70.61 71.34 72.57 72.02 71.29 70.71 69.64 70.88 72.57 73.57 73.86 73.39 73.92 74.28 74.03 73.48 73.67 73.81 73.61 73.23 72.86 72.32 70.34 71.39 71.49 70.59 69.56 66.32 65.28 67.99 68.39 70.33 70.69 70.64 71.26 72.43 72.60 73.79
69.91 68.10 66.72 68.16 67.17 67.51 70.45 72.44 71.98 71.55 71.66 70.46 72.10 74.00 74.86 74.93 74.77 74.59 74.69 74.35 73.78 72.94 73.04 73.26 73.06 72.50 72.22 71.31 70.33 70.20 70.84 70.49 70.70 67.81 65.64 67.24 68.67 67.37 68.61 72.02 71.40 71.85 72.90
69.78 68.56 68.32 66.61 66.87 68.70 68.34 70.93 71.91 71.88 71.65 70.95 72.30 73.19 73.25 73.09 73.54 73.86 73.01 72.82 73.03 72.47 71.99 72.01 73.02 72.85 72.62 72.25 72.27 71.49 70.10 69.03 67.94 67.91 68.02 66.59 66.56 65.45 65.49 66.89 70.39 72.32 72.26
MSLP
1013.94 1014.15 1014.46 1014.55 1014.75 1014.97 1015.05 1015.15 1015.17 1015.21 1015.42 1015.62 1015.86 1016.14 1016.35 1016.64 1016.82 1016.98 1017.02 1017.06 1017.04 1017.01 1017.06 1017.14 1017.25 1017.45 1017.58 1017.70 1017.64 1017.84 1017.99 1018.09 1018.21 1018.30 1018.44 1018.68 1018.80 1018.91 1018.98 1019.14 1019.14 1018.96 1019.48
1013.55 1014.09 1014.77 1014.67 1014.74 1014.96 1015.20 1015.32 1015.47 1015.59 1015.78 1015.86 1016.00 1016.26 1016.50 1016.71 1016.80 1016.95 1016.98 1017.05 1017.07 1017.18 1017.24 1017.33 1017.37 1017.52 1017.64 1017.72 1017.88 1018.07 1018.21 1018.27 1018.35 1018.52 1018.73 1018.90 1019.03 1019.20 1019.23 1019.45 1019.46 1019.63 1019.86
1013.62 1014.09 1014.66 1014.90 1015.00 1015.15 1015.34 1015.52 1015.75 1015.88 1016.04 1016.15 1016.27 1016.43 1016.62 1016.71 1016.76 1016.84 1017.02 1017.16 1017.27 1017.40 1017.45 1017.46 1017.57 1017.59 1017.78 1017.99 1018.13 1018.21 1018.32 1018.45 1018.61 1018.74 1018.81 1018.54 1018.82 1019.36 1019.46 1019.63 1019.79 1020.03 1020.10
1013.64 1013.98 1014.45 1015.13 1015.23 1015.33 1015.54 1015.75 1015.98 1016.10 1016.26 1016.37 1016.43 1016.54 1016.68 1016.79 1016.90 1017.00 1017.16 1017.32 1017.42 1017.53 1017.57 1017.72 1017.66 1017.83 1017.97 1018.11 1018.31 1018.45 1018.56 1018.69 1018.80 1018.94 1018.68 1018.72 1018.80 1019.49 1019.62 1019.74 1019.96 1020.13 1020.32
1013.92 1014.07 1014.50 1015.14 1015.31 1015.48 1015.67 1015.99 1016.12 1016.29 1016.49 1016.57 1016.56 1016.69 1016.76 1016.88 1016.98 1017.09 1017.16 1017.37 1017.59 1017.72 1017.76 1017.71 1017.81 1017.96 1018.10 1018.24 1018.41 1018.65 1018.72 1018.89 1019.02 1019.04 1019.04 1018.97 1018.88 1019.54 1019.69 1019.80 1020.10 1020.21 1020.22
1013.93 1014.11 1014.76 1015.07 1015.33 1015.59 1015.76 1016.00 1016.25 1016.43 1016.47 1016.65 1016.75 1016.89 1017.01 1017.11 1017.15 1017.24 1017.32 1017.47 1017.67 1017.84 1017.84 1017.86 1017.89 1018.02 1018.24 1018.43 1018.62 1018.75 1018.92 1019.07 1019.20 1018.99 1019.13 1019.43 1019.17 1019.73 1019.82 1020.00 1020.09 1020.26 1020.43
1013.93 1014.21 1014.59 1015.11 1015.27 1015.54 1015.85 1016.06 1016.33 1016.54 1016.58 1016.70 1016.84 1016.94 1017.05 1017.21 1017.36 1017.45 1017.54 1017.62 1017.68 1017.87 1017.89 1017.95 1018.02 1018.10 1018.27 1018.50 1018.76 1018.92 1019.05 1019.21 1019.10 1019.10 1019.30 1019.38 1019.57 1019.95 1019.95 1020.14 1020.32 1020.39 1020.54
1013.89 1014.15 1014.44 1015.12 1015.39 1015.57 1015.86 1016.08 1016.34 1016.55 1016.67 1016.73 1016.99 1016.98 1017.03 1017.14 1017.38 1017.37 1017.57 1017.68 1017.74 1017.93 1018.03 1018.04 1018.16 1018.26 1018.47 1018.59 1018.75 1018.94 1019.05 1019.14 1019.15 1019.04 1019.25 1019.39 1019.76 1020.03 1020.04 1020.23 1020.39 1020.48 1020.56
1013.91 1014.18 1014.46 1014.82 1015.23 1015.58 1015.80 1015.99 1016.22 1016.37 1016.54 1016.80 1017.01 1017.07 1016.97 1017.21 1017.37 1017.47 1017.52 1017.63 1017.80 1017.94 1018.01 1018.13 1018.26 1018.42 1018.62 1018.74 1018.90 1019.00 1019.06 1019.16 1019.01 1018.97 1019.02 1019.18 1019.82 1020.00 1020.05 1020.23 1020.38 1020.53 1020.65
1014.26 1014.40 1014.59 1014.81 1015.05 1015.27 1015.53 1016.00 1016.29 1016.43 1016.58 1016.78 1016.93 1017.12 1017.07 1017.21 1017.33 1017.45 1017.55 1017.61 1017.73 1017.90 1018.05 1018.19 1018.26 1018.38 1018.59 1018.82 1018.96 1019.14 1019.18 1019.16 1018.67 1018.90 1019.06 1018.97 1019.70 1019.97 1020.07 1020.24 1020.42 1020.48 1020.68
1014.43 1014.56 1014.70 1014.90 1015.07 1015.37 1015.61 1015.78 1016.21 1016.48 1016.69 1016.79 1016.84 1017.10 1017.26 1016.97 1017.07 1017.28 1017.42 1017.67 1017.72 1017.84 1018.02 1018.10 1018.19 1018.41 1018.61 1018.80 1018.95 1019.09 1019.17 1018.70 1018.58 1018.69 1018.71 1019.18 1019.65 1019.81 1019.88 1020.12 1020.37 1020.56 1020.71
1013.87 1014.30 1014.67 1014.85 1015.09 1015.43 1015.59 1015.87 1015.97 1016.27 1016.58 1016.80 1016.89 1016.85 1016.94 1016.98 1017.22 1017.24 1017.38 1017.66 1017.72 1017.78 1017.93 1018.00 1018.20 1018.36 1018.58 1018.31 1018.48 1018.99 1018.67 1018.73 1018.64 1018.58 1018.61 1019.15 1019.46 1019.62 1019.68 1019.91 1020.17 1020.36 1020.61
1013.42 1013.79 1014.22 1014.71 1015.00 1015.27 1015.51 1015.82 1015.76 1015.80 1016.01 1016.63 1016.91 1016.93 1016.96 1017.06 1017.26 1017.23 1017.28 1017.36 1017.40 1017.61 1017.42 1017.80 1017.99 1017.83 1018.16 1018.32 1018.27 1018.39 1018.53 1018.78 1018.53 1018.51 1018.56 1019.28 1019.43 1019.50 1019.61 1019.74 1019.96 1020.19 1020.41
1013.05 1013.40 1013.85 1014.35 1014.86 1015.23 1015.42 1015.63 1015.88 1016.15 1016.45 1016.50 1016.88 1016.78 1016.86 1016.91 1016.83 1017.07 1017.07 1017.29 1017.37 1017.43 1017.34 1017.60 1017.68 1018.04 1018.22 1018.30 1018.39 1018.46 1018.53 1018.42 1018.36 1018.39 1018.46 1018.95 1019.07 1019.13 1019.25 1019.45 1019.69 1019.94 1020.14
1012.85 1013.22 1013.70 1014.14 1014.53 1014.95 1015.29 1015.43 1015.81 1015.95 1016.14 1016.29 1016.41 1016.44 1016.63 1016.83 1016.74 1016.72 1016.79 1016.91 1017.01 1017.17 1017.32 1017.47 1017.65 1017.92 1018.16 1018.31 1018.30 1018.29 1018.24 1018.26 1018.19 1018.21 1018.24 1018.63 1018.74 1018.79 1019.02 1019.15 1019.34 1019.57 1019.79
1012.52 1012.79 1013.54 1014.06 1014.31 1014.60 1015.00 1015.27 1015.47 1015.76 1015.79 1016.02 1016.14 1016.15 1016.31 1016.48 1016.86 1016.75 1016.53 1016.57 1016.53 1016.69 1017.12 1017.24 1017.48 1017.68 1017.83 1017.97 1018.06 1018.11 1018.06 1017.95 1017.94 1017.99 1017.88 1017.88 1018.35 1018.45 1018.52 1018.82 1019.02 1019.19 1019.36
1011.80 1012.43 1012.97 1013.52 1013.86 1014.25 1014.69 1014.93 1015.19 1015.64 1015.82 1015.81 1015.85 1016.06 1016.02 1016.18 1016.55 1016.58 1016.77 1016.57 1016.43 1016.65 1016.90 1017.20 1017.38 1017.53 1017.65 1017.66 1017.79 1017.71 1017.70 1017.68 1017.52 1017.73 1017.71 1017.61 1017.58 1018.15 1018.25 1018.33 1018.52 1018.77 1019.08
1011.34 1011.78 1012.50 1013.14 1013.57 1014.02 1014.28 1014.58 1015.05 1015.43 1015.41 1015.49 1015.69 1015.88 1015.77 1015.80 1016.20 1016.35 1016.66 1016.61 1016.32 1016.52 1016.66 1016.89 1017.03 1017.18 1017.38 1017.42 1017.36 1017.22 1017.22 1017.21 1017.18 1017.23 1017.16 1017.19 1017.22 1017.15 1017.49 1017.77 1018.07 1018.33 1018.54
1011.02 1011.50 1011.96 1012.53 1013.23 1013.65 1014.14 1014.32 1014.72 1015.20 1015.22 1015.07 1015.44 1015.49 1015.53 1015.49 1015.84 1016.17 1016.33 1016.20 1016.35 1016.37 1016.55 1016.81 1016.93 1017.06 1016.98 1017.14 1017.12 1016.95 1016.84 1016.77 1016.69 1016.53 1016.62 1016.82 1016.88 1016.94 1016.88 1017.07 1017.50 1017.71 1017.92
1010.37 1011.44 1012.17 1012.51 1013.18 1013.64 1013.85 1014.18 1014.69 1015.20 1015.04 1015.07 1014.89 1015.07 1015.20 1015.32 1015.43 1015.77 1016.08 1015.97 1016.13 1016.33 1016.51 1016.61 1016.82 1016.84 1016.89 1016.88 1016.75 1016.42 1016.55 1016.39 1016.31 1016.54 1016.89 1016.52 1016.54 1016.59 1016.68 1016.81 1016.84 1016.79 1017.22
1010.49 1011.50 1012.32 1012.93 1013.82 1014.45 1014.38 1014.24 1014.53 1014.40 1014.75 1015.06 1014.82 1014.88 1015.01 1015.26 1015.39 1015.50 1015.68 1016.14 1016.44 1016.55 1016.64 1016.71 1016.64 1016.69 1016.55 1016.81 1016.75 1016.17 1016.22 1016.20 1016.24 1016.19 1015.95 1016.13 1016.13 1016.31 1016.44 1016.47 1016.50 1016.59 1016.71
1010.37 1011.74 1013.12 1014.27 1014.11 1014.83 1014.62 1014.44 1014.39 1014.43 1014.42 1014.29 1014.69 1014.76 1014.81 1015.00 1015.40 1015.24 1015.06 1015.53 1016.01 1016.15 1016.33 1016.55 1016.68 1016.50 1016.22 1016.47 1016.05 1015.86 1015.73 1015.93 1016.03 1016.22 1016.41 1016.39 1016.29 1016.26 1016.20 1016.18 1016.14 1016.15 1016.43
1011.06 1012.88 1013.77 1013.92 1014.40 1014.74 1015.03 1014.93 1015.08 1014.93 1014.58 1014.57 1014.41 1014.43 1014.70 1014.85 1014.82 1015.04 1015.07 1015.20 1015.60 1015.83 1015.93 1016.04 1016.29 1016.27 1015.97 1016.28 1016.06 1015.51 1015.40 1015.07 1015.74 1016.77 1016.77 1016.75 1016.72 1016.73 1016.35 1016.06 1016.05 1016.14 1016.27
1011.40 1011.84 1011.68 1012.20 1012.52 1013.20 1014.55 1014.48 1014.82 1015.00 1014.45 1013.87 1013.85 1014.18 1014.19 1014.66 1014.79 1014.72 1014.71 1014.89 1015.39 1015.46 1015.51 1015.69 1015.96 1015.89 1015.88 1015.47 1015.82 1015.87 1015.96 1015.73 1015.32 1016.00 1016.87 1017.07 1016.94 1017.07 1016.94 1016.80 1016.70 1016.63 1016.56
1009.84 1010.75 1011.07 1011.70 1011.17 1012.60 1013.60 1013.86 1014.25 1014.47 1014.58 1013.84 1013.80 1014.06 1014.16 1014.31 1014.60 1014.66 1014.68 1014.65 1015.07 1015.28 1015.45 1015.51 1015.68 1015.80 1015.68 1015.55 1015.33 1015.34 1015.60 1015.61 1015.61 1015.49 1015.65 1016.86 1017.26 1017.50 1017.35 1017.05 1016.83 1016.72 1016.65
1009.74 1009.90 1011.11 1011.34 1010.59 1011.28 1012.64 1013.55 1014.02 1014.02 1014.14 1013.64 1013.52 1013.84 1013.96 1014.15 1014.46 1014.68 1014.81 1014.79 1014.93 1015.21 1015.28 1015.24 1015.34 1015.40 1015.36 1015.41 1015.28 1015.17 1015.10 1015.19 1015.35 1015.45 1015.87 1016.65 1017.14 1017.89 1017.84 1017.62 1017.34 1016.86 1016.87
Wind_Speed
12 13 14 15 14 13 13 14 15 15 16 16 15 15 15 13 11 9 8 7 7 8 8 10 11 10 11 9 11 11 12 12 12 13 12 11 10 12 12 12 9 13 12
16 15 14 15 15 14 14 13 14 14 15 16 15 15 13 11 10 9 8 9 9 8 9 10 11 10 12 10 10 10 13 12 11 12 13 12 11 13 14 12 7 11 11
15 14 15 15 14 15 14 13 13 13 14 14 14 13 12 11 10 10 8 7 7 7 10 10 11 11 11 11 11 10 11 11 12 11 9 7 10 11 11 10 12 10 9
14 13 13 15 14 14 14 13 13 13 13 13 13 13 11 11 10 10 9 8 8 8 10 10 10 11 11 11 12 10 11 10 10 9 6 7 9 9 10 10 10 10 11
13 12 12 14 16 16 14 13 13 12 12 12 13 12 10 9 9 8 8 8 8 9 10 10 10 11 10 10 10 10 11 9 9 7 6 5 6 8 9 11 10 10 9
13 12 13 13 15 15 15 14 13 12 12 10 10 11 10 9 9 9 9 8 8 8 8 10 10 12 10 10 9 10 9 9 8 6 6 7 3 10 8 8 9 10 10
12 12 13 12 13 14 14 14 13 13 12 12 11 10 10 10 8 7 7 7 8 8 9 9 9 12 11 11 9 8 8 8 6 6 6 5 5 8 9 10 7 8 9
12 12 11 12 13 13 12 13 12 11 11 11 10 10 10 9 8 8 7 7 6 7 7 9 9 9 10 11 11 11 10 9 7 7 7 6 6 7 8 10 8 8 9
10 10 10 11 12 12 12 12 12 11 11 10 10 9 9 8 6 6 7 7 7 6 6 8 9 9 10 10 10 10 10 9 4 4 8 6 9 9 9 10 9 8 8
8 8 9 9 9 9 10 12 11 11 10 10 10 10 9 7 7 6 5 6 7 7 7 8 10 10 10 9 9 9 9 8 6 5 6 5 11 11 9 9 9 9 9
7 9 8 9 9 8 7 8 9 10 10 9 10 9 7 6 7 7 5 7 8 7 7 8 8 11 10 10 10 9 9 4 5 4 5 8 12 13 12 11 10 10 9
12 11 9 9 9 8 6 7 7 6 5 5 6 7 6 6 5 6 6 8 8 8 7 6 6 7 10 7 7 9 6 6 5 4 5 10 13 14 13 12 12 12 11
11 9 11 10 9 9 6 6 4 4 4 2 8 7 7 5 5 5 4 5 6 9 6 7 7 6 6 5 5 6 7 6 5 5 3 9 12 14 14 13 14 14 13
12 11 10 10 9 9 6 6 6 4 2 3 6 7 6 5 6 6 5 6 6 4 6 5 4 3 4 5 5 5 7 7 5 5 6 10 12 16 16 14 15 15 15
11 11 11 10 10 8 8 6 5 5 5 7 6 7 4 5 6 7 7 6 6 6 6 5 5 5 4 5 5 6 7 8 9 6 5 10 11 12 16 16 17 17 17
12 12 11 11 10 9 8 9 6 5 7 8 5 5 7 5 4 5 6 7 6 6 5 6 5 5 5 5 5 6 7 7 8 8 7 7 13 11 15 16 15 17 18
13 11 12 12 11 11 10 8 6 5 5 7 5 4 9 7 7 5 3 6 6 6 6 6 5 5 5 6 7 6 6 8 9 10 9 8 8 14 13 16 17 16 17
13 13 11 10 11 11 10 7 4 4 5 6 5 5 8 8 7 5 4 5 6 6 6 6 6 6 6 6 6 6 7 8 10 11 9 8 8 8 10 14 16 17 16
13 13 13 12 12 11 9 5 4 3 5 4 4 7 9 10 9 6 6 6 6 5 6 6 5 6 5 6 7 7 6 8 9 9 10 11 10 9 7 8 13 16 17
14 11 10 9 10 8 6 5 4 2 3 3 3 5 7 7 9 8 4 7 8 6 6 5 7 6 6 6 6 5 5 5 5 6 5 7 8 9 9 8 7 8 16
10 9 9 8 6 5 4 4 4 4 5 4 4 5 6 6 9 6 4 4 4 4 5 6 6 8 6 6 4 6 5 5 6 5 5 6 6 7 8 8 6 5 5
10 6 11 12 6 3 3 2 1 2 4 4 4 4 6 8 8 7 8 8 8 6 8 7 7 6 6 6 4 5 3 4 3 2 2 3 5 5 7 8 8 7 5
11 16 12 9 2 3 4 3 2 0 2 4 5 5 6 7 8 9 8 7 7 7 5 6 8 9 4 5 8 3 3 4 3 2 2 2 2 2 5 6 6 4 4
16 17 13 7 9 7 5 5 6 6 4 5 5 4 6 7 8 8 8 8 7 5 5 5 5 6 6 6 4 7 3 2 4 4 2 0 3 4 3 2 2 2 4
18 16 15 11 6 3 6 8 5 7 6 4 4 6 5 6 6 7 6 6 5 4 4 5 5 6 6 6 7 4 6 6 5 5 4 3 3 3 4 2 3 2 4
13 15 9 5 7 8 5 6 7 10 9 6 7 6 5 5 5 6 5 4 3 2 3 4 5 7 6 6 5 6 6 4 6 6 5 3 3 3 4 5 2 2 3
Wind_Direction
154 151 152 142 138 132 126 121 120 121 127 134 136 140 142 145 145 150 151 146 136 124 114 115 117 120 127 140 117 115 116 119 123 121 114 111 101 129 108 102 128 111 118
148 152 154 144 144 137 130 126 126 126 132 134 139 144 145 149 150 145 149 151 148 129 116 119 123 136 129 120 121 126 130 128 129 123 117 114 108 107 115 115 115 106 118
149 146 156 147 146 141 139 136 133 134 138 140 142 146 151 155 150 151 151 144 151 139 128 124 124 127 125 123 129 137 124 123 120 124 128 112 114 116 121 124 123 126 126
149 148 153 149 147 145 145 145 145 148 146 148 146 146 156 155 156 160 157 146 149 140 134 134 126 126 132 143 135 139 136 136 129 122 147 136 123 131 133 134 123 129 128
153 150 149 154 148 151 152 154 156 155 156 155 149 148 150 146 152 149 157 149 151 157 150 146 141 134 138 131 138 141 146 131 124 143 148 123 128 137 139 155 141 127 148
155 157 150 161 152 157 159 161 164 166 163 162 158 156 154 152 154 143 144 148 157 165 152 154 141 137 139 142 140 149 146 146 146 131 137 130 166 135 144 144 138 133 130
156 161 162 169 157 159 167 169 175 173 169 169 170 170 166 167 166 161 147 148 158 169 154 149 157 147 148 145 153 157 154 152 167 155 155 158 159 169 173 154 153 154 141
158 165 165 169 163 164 176 175 176 176 175 178 178 179 175 177 182 179 172 173 166 164 163 156 162 151 157 158 162 163 167 183 193 192 175 180 143 187 192 161 163 165 161
164 169 170 172 173 170 176 181 181 182 181 188 191 194 192 187 197 186 177 185 181 179 168 172 170 164 169 172 172 175 178 180 182 184 192 190 172 198 204 175 174 177 175
175 180 176 173 178 180 177 185 188 193 192 197 206 202 203 201 204 197 158 177 190 193 186 186 181 178 177 181 188 194 190 177 200 182 208 196 174 199 208 183 192 190 187
193 194 189 184 179 179 185 182 191 199 209 211 216 217 216 217 205 196 173 188 194 201 199 202 185 182 181 189 194 201 206 208 207 214 203 155 195 202 207 204 205 202 203
201 198 201 199 193 185 186 190 188 193 215 231 231 239 229 216 220 230 221 207 211 204 208 209 199 186 189 194 189 205 219 218 222 207 206 176 200 206 209 203 207 210 207
203 201 199 200 199 197 191 191 196 191 173 222 250 232 229 224 225 222 231 220 213 201 207 197 193 204 193 202 213 208 214 220 230 216 182 202 214 217 221 210 209 216 210
204 208 206 202 206 202 195 200 200 197 123 144 263 255 235 231 219 222 224 221 220 211 208 206 199 211 205 197 207 217 224 230 223 229 217 216 223 218 217 217 210 213 215
214 210 212 204 202 204 208 208 211 209 187 195 207 219 184 223 234 230 234 224 224 211 203 202 202 206 217 223 228 230 229 230 238 234 235 219 234 223 219 222 216 215 219
213 216 208 212 206 201 212 211 214 229 219 220 210 229 215 200 218 245 243 234 207 201 199 199 203 205 216 220 225 240 243 237 235 243 238 228 230 231 222 223 225 224 221
213 214 208 205 205 198 212 221 214 220 235 239 219 226 233 188 222 217 236 237 218 199 201 202 201 205 219 225 234 233 244 244 240 235 240 235 225 227 239 220 223 225 227
214 211 206 205 203 204 205 216 222 233 236 238 230 219 215 188 206 212 214 238 205 199 205 211 213 225 237 241 248 250 249 245 234 233 234 239 224 232 210 227 223 223 223
213 210 208 201 205 201 201 187 190 213 255 241 220 223 206 202 198 204 213 223 205 207 216 220 222 234 237 241 254 251 248 236 233 229 228 230 227 233 238 213 236 228 224
214 211 215 203 207 184 166 161 141 202 238 244 197 227 228 202 201 209 209 207 198 205 218 219 232 226 250 254 256 249 237 240 223 230 253 251 239 235 241 246 248 236 220
204 198 205 205 179 176 150 179 179 194 190 236 206 188 197 204 191 185 176 179 192 204 216 226 228 235 240 235 251 236 240 219 224 222 233 246 250 247 255 246 245 237 235
187 132 71 39 58 338 333 235 159 193 197 187 213 195 191 199 214 221 200 196 209 212 217 229 226 225 229 196 233 237 200 185 189 214 269 284 280 273 254 249 250 254 256
116 98 81 97 62 84 288 315 5 352 162 198 196 195 205 206 200 209 212 223 215 227 235 221 215 226 228 199 225 280 195 225 166 118 68 28 8 344 294 263 251 248 228
124 124 132 308 185 180 231 221 243 258 236 208 190 195 182 205 211 201 205 204 208 214 216 208 223 231 230 227 209 234 255 314 222 178 159 164 54 19 29 31 110 149 168
159 141 156 211 115 248 222 227 214 238 253 213 184 184 180 181 208 201 207 179 184 194 202 213 219 225 227 243 232 211 217 230 243 260 207 168 93 17 5 22 96 104 127
150 148 134 90 271 139 181 222 230 236 235 206 193 184 183 174 157 167 169 166 176 196 203 223 231 224 220 232 232 226 231 217 209 220 225 154 137 58 20 13 24 120 141